This is the latest recevied weather packets stored in our database for station/object N4MGC. If no packets are shown the sender has not sent any weather packets the latest 10 day(s).
| Time | Temp. | Humidity | Pressure | Rain* | Wind** | Luminosity | Snow |
|---|---|---|---|---|---|---|---|
| 1777833791 | 21.11° C | 39% | 1020.6 hPa | 0 mm | - | 711 W/m² | - |
| 1777833486 | 21.67° C | 36% | 1020.8 hPa | 0 mm | - | 706 W/m² | - |
| 1777833184 | 21.11° C | 39% | 1021 hPa | 0 mm | - | 723 W/m² | - |
| 1777832881 | 21.11° C | 42% | 1021 hPa | 0 mm | - | 688 W/m² | - |
| 1777832580 | 20.56° C | 39% | 1021.1 hPa | 0 mm | - | 705 W/m² | - |
| 1777832276 | 21.11° C | 42% | 1021.1 hPa | 0 mm | - | 725 W/m² | - |
| 1777831974 | 21.11° C | 43% | 1021.3 hPa | 0 mm | - | 718 W/m² | - |
| 1777831670 | 20° C | 42% | 1021.3 hPa | 0 mm | - | 596 W/m² | - |
| 1777831368 | 20° C | 40% | 1021.4 hPa | 0 mm | - | 469 W/m² | - |
| 1777831064 | 20° C | 40% | 1021.1 hPa | 0 mm | - | 595 W/m² | - |
| 1777830763 | 20° C | 44% | 1021.4 hPa | 0 mm | - | 690 W/m² | - |
| 1777830458 | 20° C | 40% | 1021.4 hPa | 0 mm | - | 687 W/m² | - |
| 1777830156 | 20° C | 40% | 1021.7 hPa | 0 mm | - | 715 W/m² | - |
| 1777829850 | 20° C | 38% | 1021.8 hPa | 0 mm | - | 719 W/m² | - |
| 1777829547 | 20° C | 40% | 1021.7 hPa | 0 mm | - | 717 W/m² | - |
| 1777829244 | 19.44° C | 42% | 1021.7 hPa | 0 mm | - | 709 W/m² | - |
| 1777828941 | 20° C | 38% | 1021.9 hPa | 0 mm | - | 681 W/m² | - |
| 1777828637 | 20° C | 43% | 1021.8 hPa | 0 mm | - | 704 W/m² | - |
| 1777828335 | 18.89° C | 39% | 1022 hPa | 0 mm | - | 729 W/m² | - |
| 1777828032 | 19.44° C | 39% | 1021.9 hPa | 0 mm | - | 721 W/m² | - |
| 1777827729 | 18.89° C | 47% | 1021.9 hPa | 0 mm | - | 728 W/m² | - |
| 1777827426 | 18.89° C | 46% | 1022.2 hPa | 0 mm | - | 735 W/m² | - |
| 1777827122 | 18.89° C | 41% | 1022 hPa | 0 mm | - | 721 W/m² | - |
| 1777826819 | 18.89° C | 40% | 1022.1 hPa | 0 mm | - | 724 W/m² | - |
| 1777826516 | 18.89° C | 43% | 1022 hPa | 0 mm | - | 724 W/m² | - |
* Rain latest hour (hover to see other rain measurements)
** Current wind speed in m/s (hover to see current wind gust speed)